Regional Weather Roundup
Issued by NWS

Home | Current Version | Previous Version | Graphics & Text | Print | Product List | Glossary On
Versions: 1 2 3 4 5 6 7 8 9 10 11 12 13 14 15 16 17 18 19 20 21 22 23 24 25 26 27 28 29 30 31 32 33 34 35 36 37 38 39 40 41 42 43 44 45 46 47 48 49 50
000
ASUS43 KLMK 271802
RWRKY
KENTUCKY REGIONAL WEATHER ROUNDUP
NATIONAL WEATHER SERVICE LOUISVILLE KY
200 PM EDT WED MAY 27 2015

NOTE "FAIR" INDICATES FEW OR NO CLOUDS BELOW 12,000 FEET
WITH NO SIGNIFICANT WEATHER AND/OR OBSTRUCTIONS TO VISIBILITY.

KYZ001>023-026-027-061>063-070>075-271900-
WESTERN AND SOUTH CENTRAL KENTUCKY

CITY           SKY/WX    TMP DP  RH WIND       PRES   REMARKS
PADUCAH        FAIR      76  62  62 S9        30.10S
HENDERSON      SUNNY     75  64  69 SE9       30.06F
OWENSBORO      PTSUNNY   71  67  87 SE7       30.10F
HOPKINSVILLE   MOSUNNY   78  70  77 SW13      30.15R
BOWLING GREEN  CLOUDY    81  69  67 S10       30.13F
GLASGOW        NOT AVBL
$$

KYZ024-025-028>034-038-045-046-053-271900-
NORTH CENTRAL KENTUCKY

CITY           SKY/WX    TMP DP  RH WIND       PRES   REMARKS
LOUISVILLE/SDF CLOUDY    80  67  64 SW10G18   30.12S
LOUISVILLE/LOU PTSUNNY   80  66  62 SW12      30.13R
FORT KNOX      PTSUNNY   78  67  68 W21G30    30.14R
$$

KYZ035>037-039>044-047>052-055>060-089>105-271900-
NORTHEAST KENTUCKY

CITY           SKY/WX    TMP DP  RH WIND       PRES   REMARKS
LEXINGTON      MOSUNNY   80  65  59 SW13G21   30.16F
COVINGTON      PTSUNNY   79  64  60 S14G21    30.12F
FRANKFORT      MOSUNNY   81  63  54 SW13G21   30.13F
$$

KYZ054-064>069-076>088-106>120-271900-
SOUTHEAST KENTUCKY

CITY           SKY/WX    TMP DP  RH WIND       PRES   REMARKS
JACKSON        PTSUNNY   78  63  59 VRB3      30.22F
LONDON         PTSUNNY   79  59  50 VRB6      30.22F
SOMERSET       NOT AVBL
MIDDLESBORO    NOT AVBL
MONTICELLO     PTCLDY    79  67  66 SW8       30.23F
$$



USA.gov is the U.S. government's official web portal to all federal, state and local government web resources and services.